Hibbing, MN

1:50 PM CDT on May 29, 2017 (GMT -0500)
Chisholm-hibbing

Weather History for KHIB - December, 2012

Change the Weather History Date:

Sunday, December 9, 2012

  Actual Average Record
Temperature  
Mean Temperature 18 °F -  
Max Temperature 27 °F 22 °F 46 °F (1990)
Min Temperature 8 °F 4 °F -27 °F (1983)
Degree Days  
Heating Degree Days 48    
Moisture  
Dew Point 15 °F    
Average Humidity 82    
Maximum Humidity 92    
Minimum Humidity 73    
Precipitation  
Precipitation 0.12 in - - ()
Sea Level Pressure  
Sea Level Pressure 30.06 in    
Wind  
Wind Speed 7 mph (NNE)    
Max Wind Speed 16 mph    
Max Gust Speed 21 mph    
Visibility 3 miles    
Events Fog , Snow    
Averages and records for this station are not official NWS values.
T = Trace of Precipitation, MM = Missing Value Source: NWS Daily Summary

Daily Weather History Graph

Daily Weather History Graph

Search for Another Location

Airport or City:

Trip Planner

Search our weather history database for the weather conditions in past years. The results will help you decide how hot, cold, wet, or windy it might be!

Date:

Astronomy

Dec. 09, 2012 Rise Set
Actual Time 7:47 AM CST 4:20 PM CST
Civil Twilight 7:11 AM CST 4:56 PM CST
Nautical Twilight 6:32 AM CST 5:35 PM CST
Astronomical Twilight 5:55 AM CST 6:12 PM CST
Moon 3:07 AM CST (12/9) 1:38 PM CST (12/9)
Length of Visible Light 9h 44m
Length of Day
8h 33m
Waning Crescent, 18% of the Moon is Illuminated
Dec 9
Waning Crescent
Dec 13
New
Dec 19
First Quarter
Dec 28
Full
Jan 4
Last Quarter

Hourly Weather History & Observations

Time (CST) Temp. Windchill Dew Point Humidity Pressure Visibility Wind Dir Wind Speed Gust Speed Precip Events Conditions
12:01 AM 24.8 °F 19.1 °F 19.4 °F 80% 30.06 in 3.0 mi ESE 4.6 mph - 0.00 in Snow Light Snow
12:11 AM 24.8 °F 17.9 °F 19.4 °F 80% 30.06 in 3.0 mi East 5.8 mph - 0.00 in Snow Light Snow
12:53 AM 24.1 °F 18.2 °F 21.0 °F 88% 30.14 in 3.0 mi East 4.6 mph - 0.00 in Snow Light Snow
12:58 AM 24.8 °F 19.1 °F 21.2 °F 86% 30.06 in 2.5 mi ESE 4.6 mph - 0.00 in Snow Light Snow
1:14 AM 24.8 °F 19.1 °F 21.2 °F 86% 30.06 in 1.5 mi ESE 4.6 mph - 0.00 in Snow Light Snow
1:30 AM 24.8 °F 20.5 °F 21.2 °F 86% 30.06 in 2.0 mi ESE 3.5 mph - 0.00 in Snow Light Snow
1:50 AM 24.8 °F 20.5 °F 21.2 °F 86% 30.06 in 1.5 mi East 3.5 mph - 0.00 in Snow Light Snow
1:53 AM 24.1 °F - 21.9 °F 91% 30.13 in 1.5 mi Calm Calm - 0.01 in Snow Light Snow
2:53 AM 25.0 °F 19.3 °F 21.9 °F 88% 30.13 in 1.5 mi East 4.6 mph - 0.01 in Snow Light Snow
3:53 AM 25.0 °F - 23.0 °F 92% 30.12 in 1.8 mi Calm Calm - 0.02 in Snow Light Snow
4:36 AM 26.6 °F 21.2 °F 23.0 °F 86% 30.04 in 2.0 mi East 4.6 mph - 0.01 in Snow Light Snow
4:53 AM 26.1 °F 20.5 °F 23.0 °F 88% 30.12 in 2.0 mi East 4.6 mph - 0.01 in Snow Light Snow
5:28 AM 26.6 °F 20.0 °F 23.0 °F 86% 30.04 in 1.8 mi ENE 5.8 mph - 0.01 in Snow Light Snow
5:53 AM 26.1 °F 21.9 °F 23.0 °F 88% 30.13 in 1.5 mi ENE 3.5 mph - 0.01 in Snow Light Snow
6:53 AM 26.1 °F 21.9 °F 23.0 °F 88% 30.13 in 1.5 mi ENE 3.5 mph - 0.01 in Snow Light Snow
7:43 AM 26.6 °F 22.6 °F 23.0 °F 86% 30.06 in 2.0 mi NE 3.5 mph - 0.01 in Snow Light Snow
7:53 AM 26.1 °F 20.5 °F 23.0 °F 88% 30.14 in 2.0 mi NNE 4.6 mph - 0.02 in Snow Light Snow
8:09 AM 26.6 °F 22.6 °F 23.0 °F 86% 30.06 in 1.2 mi NNE 3.5 mph - 0.00 in Snow Light Snow
8:49 AM 26.6 °F 21.2 °F 23.0 °F 86% 30.06 in 0.8 mi NNE 4.6 mph - 0.00 in Snow Light Snow
8:53 AM 27.0 °F 20.5 °F 23.0 °F 85% 30.14 in 0.5 mi NNE 5.8 mph - 0.01 in Fog , Snow Snow
9:24 AM 24.8 °F 15.3 °F 21.2 °F 86% 30.07 in 0.5 mi North 9.2 mph - 0.01 in Fog , Snow Snow
9:53 AM 24.1 °F 13.7 °F 19.9 °F 84% 30.15 in 1.0 mi North 10.4 mph - 0.02 in Snow Light Snow
10:05 AM 23.0 °F 13.1 °F 19.4 °F 86% 30.08 in 1.0 mi North 9.2 mph - 0.00 in Snow Light Snow
10:53 AM 23.0 °F 11.1 °F 18.0 °F 81% 30.15 in 0.8 mi North 12.7 mph - 0.00 in Snow Light Snow
11:10 AM 21.2 °F 10.1 °F 17.6 °F 86% 30.07 in 0.8 mi NNE 10.4 mph - 0.00 in Snow Light Snow
11:27 AM 23.0 °F 11.7 °F 17.6 °F 80% 30.06 in 1.0 mi North 11.5 mph - 0.00 in Snow Light Snow
11:39 AM 23.0 °F 11.7 °F 17.6 °F 80% 30.05 in 3.0 mi North 11.5 mph - 0.00 in Snow Light Snow
11:49 AM 23.0 °F 13.9 °F 17.6 °F 80% 30.05 in 4.0 mi NNE 8.1 mph - 0.00 in   Haze
11:53 AM 23.0 °F 12.4 °F 18.0 °F 81% 30.12 in 4.0 mi North 10.4 mph - 0.00 in   Haze
12:41 PM 21.2 °F 10.9 °F 17.6 °F 86% 30.03 in 2.0 mi North 9.2 mph - 0.00 in Snow Light Snow
12:50 PM 21.9 °F 11.0 °F 17.1 °F 82% 30.10 in 1.5 mi North 10.4 mph - 0.00 in Snow Light Snow
1:43 PM 21.2 °F 8.9 °F 15.8 °F 80% 30.01 in 2.0 mi North 12.7 mph - 0.00 in Snow Light Snow
1:53 PM 21.0 °F 8.6 °F 16.0 °F 81% 30.08 in 2.0 mi North 12.7 mph 19.6 mph 0.00 in Snow Light Snow
2:25 PM 21.2 °F 9.5 °F 15.8 °F 80% 30.00 in 2.5 mi North 11.5 mph - 0.00 in Snow Light Snow
2:33 PM 21.2 °F 10.1 °F 15.8 °F 80% 30.00 in 3.0 mi North 10.4 mph - 0.00 in Snow Light Snow
2:48 PM 19.4 °F 6.0 °F 15.8 °F 86% 30.00 in 2.5 mi North 13.8 mph - 0.00 in Snow Light Snow
2:53 PM 19.9 °F 7.3 °F 15.1 °F 81% 30.07 in 2.5 mi North 12.7 mph - 0.00 in Snow Light Snow
3:10 PM 19.4 °F 7.9 °F 14.0 °F 80% 30.00 in 1.5 mi North 10.4 mph - 0.00 in Snow Light Snow
3:37 PM 19.4 °F 8.6 °F 15.8 °F 86% 30.01 in 1.2 mi North 9.2 mph - 0.00 in Snow Light Snow
3:53 PM 19.0 °F 6.1 °F 14.0 °F 81% 30.08 in 1.2 mi North 12.7 mph - 0.00 in Snow Light Snow
4:53 PM 17.1 °F 3.6 °F 12.0 °F 81% 30.09 in 1.8 mi North 12.7 mph 20.7 mph 0.00 in Snow Light Snow
5:00 PM 17.6 °F 4.3 °F 12.2 °F 79% 30.02 in 2.0 mi North 12.7 mph - 0.00 in Snow Light Snow
5:30 PM 17.6 °F 4.3 °F 10.4 °F 73% 30.01 in 3.0 mi North 12.7 mph - 0.00 in Snow Light Snow
5:53 PM 16.0 °F 2.9 °F 10.9 °F 81% 30.10 in 4.0 mi North 11.5 mph - 0.00 in Snow Light Snow
6:53 PM 15.1 °F 1.1 °F 9.0 °F 77% 30.10 in 6.0 mi North 12.7 mph 19.6 mph 0.00 in   Haze
7:53 PM 14.0 °F 0.5 °F 8.1 °F 77% 30.11 in 3.0 mi North 11.5 mph - 0.00 in Snow Light Snow
8:09 PM 12.2 °F -2.5 °F 6.8 °F 79% 30.02 in 3.0 mi North 12.7 mph 19.6 mph 0.00 in Snow Light Snow
8:19 PM 12.2 °F -1.0 °F 6.8 °F 79% 30.02 in 2.5 mi North 10.4 mph - 0.00 in Snow Light Snow
8:43 PM 12.2 °F -1.8 °F 6.8 °F 79% 30.01 in 1.5 mi North 11.5 mph - 0.00 in Snow Light Snow
8:53 PM 12.9 °F -0.9 °F 7.0 °F 77% 30.09 in 1.5 mi North 11.5 mph - 0.00 in Snow Light Snow
9:31 PM 10.4 °F -6.6 °F 6.8 °F 85% 30.00 in 2.0 mi NNW 16.1 mph - 0.00 in Snow Light Snow
9:53 PM 10.9 °F -1.8 °F 5.0 °F 77% 30.09 in 3.0 mi North 9.2 mph - 0.00 in Snow Light Snow
10:16 PM 10.4 °F -5.4 °F 3.2 °F 73% 29.99 in 6.0 mi North 13.8 mph 18.4 mph 0.00 in Snow Light Snow
10:53 PM 9.0 °F -5.9 °F 3.0 °F 77% 30.07 in 7.0 mi North 11.5 mph - 0.00 in   Overcast
11:10 PM 8.6 °F -6.3 °F 3.2 °F 79% 29.98 in 8.0 mi North 11.5 mph - N/A   Overcast
11:34 PM 8.6 °F -7.0 °F 1.4 °F 73% 29.98 in 5.0 mi North 12.7 mph - 0.00 in Snow Light Snow
11:43 PM 8.6 °F -5.5 °F 1.4 °F 73% 29.97 in 6.0 mi North 10.4 mph - 0.00 in Snow Light Snow
11:53 PM 8.1 °F -7.7 °F 1.9 °F 76% 30.06 in 10.0 mi NNW 12.7 mph - 0.00 in   Overcast